Overview Statistics Trail Chart Weather Telemetry Raw packets
 

This is the latest recevied weather packets stored in our database for station/object N7WGJ. If no packets are shown the sender has not sent any weather packets the latest 10 day(s).

<< 36 37 38 39 40 41 42 >>
Time Temp. Humidity Pressure Rain* Wind** Luminosity Snow
1788129691 21.11° C 52% 1019.3 hPa 0 mm - - -
1788129092 21.11° C 52% 1019.3 hPa 0 mm - - -
1788128490 21.11° C 52% 1019.6 hPa 0 mm - - -
1788127892 21.11° C 54% 1019.7 hPa 0 mm - - -
1788127311 21.11° C 55% 1019.8 hPa 0 mm - - -
1788126705 21.11° C 56% 1019.8 hPa 0 mm - - -
1788126099 20.56° C 57% 1020 hPa 0 mm - - -
1788125483 20.56° C 57% 1020.1 hPa 0 mm - - -
1788124884 20° C 59% 1020.1 hPa 0 mm - - -
1788124284 20° C 58% 1020.3 hPa 0 mm - - -
1788123699 20.56° C 60% 1020.3 hPa 0 mm - - -
1788123089 20.56° C 59% 1020.3 hPa 0 mm - - -
1788122487 20.56° C 60% 1020.4 hPa 0 mm - - -
1788121885 20° C 61% 1020.6 hPa 0 mm - - -
1788121300 19.44° C 62% 1020.6 hPa 0 mm - - -
1788120698 18.89° C 66% 1020.7 hPa 0 mm - - -
1788120116 18.89° C 65% 1020.7 hPa 0 mm - - -
1788119489 18.33° C 68% 1020.8 hPa 0 mm - - -
1788118886 18.33° C 69% 1020.8 hPa 0 mm - - -
1788118287 18.33° C 72% 1020.9 hPa 0 mm - - -
1788117689 17.22° C 74% 1021 hPa 0 mm - - -
1788117092 17.22° C 74% 1021 hPa 0 mm - - -
1788116511 17.22° C 75% 1021 hPa 0 mm - - -
1788115902 17.22° C 77% 1020.9 hPa 0 mm - - -
1788115285 16.67° C 79% 1020.9 hPa 0 mm - - -

* Rain latest hour (hover to see other rain measurements)
** Current wind speed in m/s (hover to see current wind gust speed)